Wind_Speed
37 37 36 33 36 37 36 34 31 30 32 31 29 24 25 26 19 20 20 20 19 21 26 26 28 28 27 27 28 30 30 31 33 34 33 33 34 35 34 33 32 33 33 33
40 40 38 38 39 39 37 35 33 33 35 36 34 28 28 28 23 24 24 23 25 25 27 30 33 33 33 34 32 34 36 35 35 36 38 35 36 36 36 36 36 38 37 37
42 42 42 42 43 42 39 38 36 38 40 41 37 37 32 28 27 28 26 27 29 30 30 32 36 38 38 39 40 41 42 40 38 36 36 37 37 36 37 38 39 40 41 41
46 45 44 43 43 44 43 40 41 42 43 44 41 46 35 30 32 31 29 31 30 31 32 33 35 39 42 44 46 47 48 43 40 38 36 35 36 35 36 39 40 41 42 44
47 46 45 46 45 46 48 46 46 46 46 47 47 50 43 34 33 31 32 33 34 35 35 34 35 39 43 47 48 46 44 40 39 37 36 36 35 36 38 39 39 40 42 45
50 50 49 48 47 49 51 50 49 50 49 52 50 50 52 41 33 34 33 34 36 37 36 36 36 39 43 46 46 41 41 38 36 37 36 36 37 38 39 40 41 42 44 45
49 50 50 50 50 50 52 52 51 52 54 55 55 55 55 47 40 38 37 36 38 40 40 40 41 39 42 44 44 43 41 37 36 38 38 38 39 40 42 43 44 45 47 47
53 53 52 51 51 50 48 49 52 55 57 58 59 58 54 50 49 43 43 42 43 43 45 46 47 44 45 45 45 45 43 37 33 34 38 42 43 44 44 43 45 47 49 50
56 54 54 52 52 52 55 56 54 56 58 61 63 59 57 53 50 51 48 49 48 48 47 46 48 49 51 45 45 48 47 45 41 40 40 40 40 42 42 44 46 47 47 48
48 54 59 57 57 58 57 58 59 60 62 65 66 64 58 54 53 52 52 55 55 52 48 50 55 55 47 44 41 47 48 48 47 45 43 42 43 44 46 46 45 46 46 47
50 51 55 57 62 60 59 60 61 63 64 65 66 67 59 56 57 58 59 59 59 57 56 54 59 47 51 51 47 45 48 49 48 47 47 45 42 42 45 46 45 44 45 46
51 56 56 56 56 59 65 65 63 67 67 67 64 67 59 58 58 60 61 60 60 62 62 62 61 61 60 53 45 48 47 48 49 50 50 48 47 46 46 45 45 45 46 47
56 57 57 58 58 58 60 61 66 69 68 70 70 67 56 61 61 61 61 62 63 65 63 64 64 66 63 54 48 50 52 50 49 49 49 50 51 49 48 47 47 47 48 48
61 63 60 63 60 59 57 56 56 55 60 68 74 74 65 64 65 64 63 64 64 63 64 66 64 62 59 54 49 53 56 57 53 51 53 53 52 52 53 52 50 51 52 52
69 70 68 69 65 66 64 60 58 57 61 62 59 62 56 59 65 67 70 68 65 60 60 61 62 61 61 61 56 51 55 56 53 51 52 53 55 55 55 55 55 56 56 54
48 70 69 68 66 67 70 68 63 62 62 63 64 61 53 48 49 55 58 60 59 58 58 57 58 59 60 60 58 54 51 52 53 51 50 53 56 55 55 56 57 57 55 53
46 50 58 69 62 60 63 66 67 69 67 60 61 57 46 50 50 49 51 52 56 56 51 51 53 56 57 57 57 55 53 51 51 51 50 49 50 51 52 54 55 54 52 52
63 57 52 56 59 66 65 55 54 59 62 64 63 57 47 48 45 51 53 47 47 45 49 51 53 55 55 56 58 58 56 53 50 48 47 46 47 49 51 51 51 52 53 54
76 75 72 72 70 68 67 66 58 56 52 49 56 61 57 54 52 54 46 50 51 49 48 48 48 50 52 53 54 55 54 52 50 48 48 48 48 49 49 50 52 54 55 55
67 69 76 78 83 77 68 62 68 60 65 48 60 59 55 52 64 54 57 61 60 58 58 54 55 56 55 55 54 55 55 56 57 58 57 56 55 55 56 57 57 58 59 61
69 71 73 75 81 88 74 62 65 74 66 60 58 56 59 57 61 61 61 64 65 61 60 57 57 58 59 61 61 61 61 60 59 57 57 58 55 56 57 58 60 60 62 62
70 71 70 61 61 70 73 75 80 79 74 71 72 71 69 65 69 73 72 68 69 66 59 59 63 63 63 64 65 64 63 64 64 65 65 64 63 63 62 61 61 61 63 64
73 72 73 71 71 67 58 57 60 65 73 61 55 63 62 68 66 63 59 63 62 63 60 63 63 62 58 59 63 65 65 66 66 67 69 70 69 67 66 66 66 63 62 63
67 69 73 72 73 70 56 55 56 59 51 53 58 62 54 53 67 75 71 69 65 70 66 64 64 61 61 60 62 63 60 59 60 62 62 63 64 65 64 65 65 64 61 60
63 63 65 69 71 73 72 67 62 60 57 67 61 49 48 47 43 48 60 58 58 56 54 56 58 60 57 53 54 53 54 55 56 59 62 63 63 62 65 64 61 56 47 44
60 60 61 62 60 66 70 69 78 72 73 74 74 86 78 59 53 52 59 58 49 44 49 51 50 49 54 54 54 57 55 56 55 54 51 53 58 56 48 45 42 44 45 46
Wind_Direction
239 239 236 232 232 234 238 242 244 246 245 246 245 235 245 250 252 259 264 269 274 274 277 286 290 293 300 301 302 302 298 291 282 275 271 268 264 263 266 268 271 274 276 277
239 240 236 236 237 240 241 244 246 247 248 248 247 243 244 254 255 259 266 273 274 276 278 283 287 291 294 297 299 297 295 293 291 283 275 272 267 265 266 268 269 271 272 273
241 241 239 238 240 242 244 246 247 247 248 252 251 252 248 252 261 263 268 271 275 276 279 282 287 290 293 295 297 297 296 292 287 284 278 273 271 267 266 266 267 269 271 272
242 245 244 243 243 247 246 247 247 247 249 252 254 261 248 247 255 263 271 273 275 278 279 283 287 290 292 292 292 294 292 290 285 280 277 272 270 267 265 266 268 271 273 273
244 244 247 244 243 245 247 248 249 250 251 252 254 260 260 252 255 261 265 269 275 277 280 284 286 288 289 290 292 292 290 289 280 273 276 271 269 268 268 270 272 273 273 275
247 247 246 247 246 247 248 250 251 251 253 252 254 257 261 260 257 259 263 270 273 276 279 281 282 288 290 292 293 285 287 286 279 271 270 271 269 268 268 270 271 273 275 277
248 248 249 248 247 247 247 249 252 253 254 255 255 256 263 267 265 264 270 272 274 277 279 280 283 283 288 291 290 282 285 285 276 267 268 269 268 268 269 271 273 275 276 276
250 247 247 249 249 250 248 248 250 254 254 254 253 257 261 264 270 270 270 271 275 274 276 280 284 288 290 294 289 283 280 278 278 272 270 271 272 273 273 274 275 276 277 274
250 250 251 251 251 249 250 249 251 252 254 257 256 256 260 264 268 273 276 277 276 275 277 283 287 291 295 288 284 278 278 276 275 275 273 273 272 271 273 273 276 277 278 276
250 251 250 250 250 250 251 250 248 248 250 253 256 258 260 264 267 267 271 274 273 277 281 285 290 292 291 291 284 272 273 273 273 276 278 276 273 273 273 275 275 274 274 275
251 252 252 251 252 253 252 251 254 255 254 255 257 256 259 263 265 268 269 270 277 280 283 286 292 283 291 290 285 268 267 270 272 274 277 277 277 278 277 275 275 275 273 273
248 251 251 252 250 251 252 253 252 251 255 255 256 257 261 263 265 267 270 273 276 281 282 286 287 287 289 289 275 270 269 268 270 273 276 277 277 278 280 279 277 276 275 275
245 245 247 249 250 253 257 258 258 257 256 256 259 262 261 263 264 266 269 273 276 276 280 282 283 284 285 283 275 269 267 265 266 270 275 278 279 281 281 280 280 280 280 280
240 244 247 249 254 253 252 255 258 257 256 259 259 264 258 261 262 264 266 270 273 275 276 279 280 280 279 274 266 266 266 267 269 273 274 275 277 277 280 280 281 283 285 283
249 249 249 248 246 251 252 250 249 254 259 262 266 262 266 264 266 268 265 266 266 266 266 269 271 272 274 276 276 267 267 269 273 273 274 273 273 274 275 277 280 283 284 282
248 248 250 248 248 250 251 251 253 255 256 256 263 262 270 265 261 261 262 261 262 263 263 263 266 269 272 273 274 274 272 273 274 275 273 270 271 272 273 274 276 277 278 278
233 233 249 251 249 250 253 252 257 258 258 260 258 266 260 257 256 258 259 259 261 263 265 266 268 269 271 275 277 279 278 276 274 274 274 273 272 271 270 271 271 272 273 275
240 237 245 239 245 244 246 243 248 253 252 255 258 260 261 259 253 249 252 258 261 264 264 263 265 268 271 274 275 276 277 277 277 277 275 274 273 273 274 273 273 274 274 275
247 249 251 252 254 245 242 245 250 249 247 251 261 264 263 260 251 243 251 263 263 260 260 261 261 262 265 268 272 275 277 279 278 277 277 278 278 279 281 282 282 281 278 276
249 248 249 247 251 248 244 246 248 259 261 259 258 256 255 253 261 250 261 258 262 264 262 263 264 266 267 268 269 270 273 276 278 278 278 279 280 281 280 280 279 279 279 278
249 249 251 252 253 254 247 239 250 256 262 255 259 254 250 259 261 254 261 262 260 266 260 264 268 269 272 273 274 275 277 278 278 279 280 279 280 280 280 279 279 276 277 278
250 253 253 254 259 259 257 257 256 258 256 259 261 257 260 269 262 259 262 258 265 261 257 269 273 272 270 270 270 271 273 274 274 275 274 274 276 279 280 280 279 278 278 278
249 250 253 251 255 258 259 259 260 259 254 256 264 263 268 264 260 258 255 259 257 252 262 271 274 269 268 272 273 272 273 271 270 270 270 271 273 275 276 277 277 277 277 277
251 249 250 250 250 252 249 249 250 253 246 247 249 257 257 260 257 258 258 259 256 258 267 268 265 270 267 269 269 269 270 271 273 274 275 275 273 275 276 277 276 273 272 271
253 251 254 253 253 252 249 244 244 240 238 240 246 247 257 265 270 258 260 261 258 257 263 260 260 260 262 266 267 272 272 276 277 278 277 277 277 277 279 278 273 268 268 271
254 253 251 253 248 249 252 251 246 246 247 248 246 249 255 263 260 261 264 252 244 261 264 262 268 275 274 275 284 283 279 277 275 274 276 277 275 276 272 267 265 274 273 272
Height
5822 5826 5830 5832 5832 5833 5837 5840 5844 5846 5845 5845 5848 5851 5852 5853 5857 5857 5857 5857 5857 5857 5854 5853 5851 5851 5850 5848 5847 5845 5844 5842 5841 5840 5839 5838 5838 5837 5837 5836 5836 5835 5834 5833
5815 5819 5822 5825 5826 5828 5830 5834 5838 5840 5838 5837 5840 5845 5846 5847 5851 5851 5851 5852 5851 5851 5849 5847 5844 5844 5843 5841 5840 5838 5837 5835 5833 5832 5831 5831 5830 5830 5830 5829 5828 5828 5827 5826
5806 5811 5814 5817 5819 5821 5824 5827 5830 5832 5831 5830 5834 5834 5840 5843 5844 5844 5846 5845 5844 5844 5843 5841 5839 5836 5835 5834 5832 5830 5828 5826 5825 5823 5822 5822 5821 5822 5822 5821 5819 5818 5818 5817
5797 5801 5806 5810 5814 5814 5817 5819 5820 5822 5823 5823 5827 5818 5832 5838 5837 5838 5839 5837 5837 5837 5836 5835 5833 5829 5826 5825 5823 5821 5818 5817 5815 5814 5813 5812 5812 5813 5812 5811 5810 5810 5808 5807
5791 5792 5795 5799 5804 5803 5807 5809 5810 5813 5814 5815 5817 5813 5817 5829 5830 5833 5832 5831 5829 5828 5828 5827 5825 5822 5819 5815 5812 5810 5807 5806 5805 5805 5804 5803 5803 5803 5803 5802 5801 5801 5799 5797
5778 5781 5785 5789 5792 5793 5797 5798 5800 5801 5803 5805 5809 5809 5804 5817 5824 5825 5824 5824 5821 5820 5819 5819 5817 5814 5810 5806 5803 5800 5798 5797 5795 5795 5795 5794 5794 5794 5793 5793 5792 5791 5789 5788
5768 5770 5774 5778 5781 5781 5784 5787 5787 5789 5790 5796 5796 5797 5795 5804 5812 5815 5815 5814 5812 5811 5810 5809 5808 5806 5801 5797 5794 5792 5789 5788 5785 5785 5785 5785 5784 5784 5783 5783 5782 5780 5779 5777
5754 5758 5761 5767 5770 5771 5773 5776 5776 5775 5776 5782 5782 5786 5789 5798 5797 5803 5803 5803 5801 5799 5798 5798 5796 5794 5792 5789 5785 5782 5780 5779 5778 5776 5776 5775 5774 5773 5773 5772 5771 5769 5767 5765
5741 5744 5749 5755 5756 5758 5760 5762 5770 5762 5765 5763 5770 5779 5782 5787 5791 5789 5790 5787 5786 5786 5787 5785 5783 5781 5780 5778 5775 5771 5769 5768 5768 5768 5767 5766 5764 5762 5762 5761 5759 5757 5756 5754
5729 5730 5735 5738 5741 5743 5747 5751 5750 5748 5748 5746 5757 5762 5770 5778 5779 5780 5779 5773 5772 5772 5772 5771 5768 5769 5769 5766 5765 5762 5759 5757 5757 5756 5756 5754 5753 5752 5751 5750 5748 5746 5744 5742
5716 5717 5722 5723 5728 5733 5732 5735 5738 5737 5737 5736 5739 5743 5762 5767 5766 5765 5762 5763 5760 5760 5759 5758 5754 5750 5755 5755 5754 5751 5748 5746 5746 5745 5744 5743 5742 5741 5740 5739 5737 5734 5732 5730
5703 5701 5706 5710 5712 5715 5716 5723 5723 5716 5724 5720 5724 5730 5752 5753 5753 5749 5748 5749 5750 5744 5743 5743 5743 5739 5736 5740 5739 5737 5737 5736 5734 5733 5732 5731 5731 5730 5728 5726 5724 5722 5720 5718
5689 5685 5690 5695 5700 5703 5704 5708 5709 5710 5707 5703 5708 5720 5742 5737 5736 5737 5738 5736 5734 5730 5728 5727 5727 5727 5725 5724 5723 5722 5722 5723 5722 5722 5721 5719 5718 5716 5714 5712 5711 5709 5707 5705
5670 5668 5673 5682 5692 5688 5691 5693 5693 5690 5687 5696 5692 5706 5724 5721 5721 5723 5725 5722 5717 5715 5713 5712 5712 5709 5708 5710 5712 5710 5708 5708 5710 5710 5709 5706 5704 5702 5701 5699 5697 5696 5694 5692
5652 5652 5659 5668 5674 5671 5673 5676 5677 5673 5680 5674 5691 5684 5705 5710 5707 5707 5703 5704 5700 5698 5699 5698 5697 5695 5693 5692 5694 5696 5696 5696 5697 5697 5694 5693 5691 5688 5687 5685 5683 5681 5679 5678
5634 5635 5641 5645 5656 5653 5651 5658 5661 5664 5667 5662 5670 5672 5693 5693 5687 5686 5687 5683 5681 5681 5681 5683 5684 5683 5681 5680 5680 5681 5683 5683 5681 5680 5679 5677 5676 5675 5673 5672 5669 5668 5665 5663
5622 5621 5626 5628 5640 5636 5630 5647 5650 5650 5651 5655 5650 5666 5675 5672 5673 5671 5670 5667 5667 5668 5669 5669 5669 5668 5669 5669 5668 5668 5667 5667 5667 5666 5665 5664 5663 5662 5660 5657 5655 5653 5651 5649
5610 5612 5611 5610 5615 5610 5623 5632 5632 5631 5634 5637 5637 5647 5658 5659 5659 5655 5655 5653 5654 5655 5654 5656 5656 5656 5656 5655 5654 5654 5653 5652 5652 5651 5650 5649 5648 5646 5645 5644 5642 5640 5637 5635
5596 5599 5595 5593 5596 5596 5603 5625 5623 5616 5617 5622 5620 5632 5639 5643 5632 5638 5646 5640 5639 5639 5641 5641 5641 5641 5640 5639 5639 5638 5638 5637 5637 5636 5635 5634 5632 5631 5630 5629 5628 5626 5623 5620
5578 5578 5574 5580 5570 5573 5596 5612 5610 5597 5587 5621 5611 5612 5616 5621 5608 5629 5626 5623 5623 5623 5623 5624 5625 5626 5626 5625 5625 5624 5623 5623 5621 5620 5619 5618 5617 5616 5614 5612 5610 5608 5607 5605
5559 5559 5556 5559 5556 5557 5581 5596 5591 5575 5586 5596 5592 5593 5601 5599 5597 5604 5609 5607 5606 5607 5608 5609 5610 5610 5609 5609 5609 5608 5608 5608 5607 5605 5604 5602 5600 5598 5596 5594 5593 5590 5588 5586
5541 5539 5544 5546 5545 5545 5562 5569 5569 5566 5571 5577 5577 5580 5579 5582 5584 5583 5587 5588 5587 5588 5589 5590 5591 5592 5592 5592 5592 5591 5591 5590 5590 5589 5588 5587 5585 5583 5580 5577 5575 5572 5570 5568
5515 5524 5527 5528 5531 5537 5544 5547 5549 5548 5553 5560 5560 5558 5558 5561 5563 5563 5566 5570 5568 5570 5571 5572 5572 5573 5573 5572 5572 5572 5572 5571 5569 5568 5567 5566 5565 5563 5561 5560 5557 5555 5552 5550
5499 5506 5501 5507 5516 5522 5528 5529 5531 5531 5535 5541 5541 5542 5543 5544 5544 5546 5549 5551 5552 5552 5553 5555 5556 5556 5556 5554 5554 5554 5553 5552 5551 5549 5547 5547 5546 5544 5542 5540 5538 5537 5535 5532
5483 5487 5488 5491 5497 5501 5509 5510 5512 5514 5515 5522 5522 5524 5524 5526 5527 5529 5530 5533 5534 5534 5534 5536 5537 5538 5538 5538 5538 5537 5537 5537 5534 5532 5531 5529 5528 5526 5523 5522 5520 5519 5518 5516
5470 5473 5470 5473 5483 5481 5489 5490 5494 5497 5500 5502 5504 5505 5507 5509 5513 5516 5517 5518 5515 5517 5518 5519 5519 5520 5520 5521 5521 5521 5520 5519 5518 5516 5514 5513 5512 5510 5508 5507 5505 5503 5501 5499